Weather History for KCRP - January, 2012

Change the Weather History Date:

Saturday, January 7, 2012

  Actual Average Record
Temperature  
Mean Temperature 67 °F 57 °F  
Max Temperature 81 °F 66 °F 90 °F (1989)
Min Temperature 52 °F 47 °F 25 °F (1912)
Degree Days  
Heating Degree Days 0 9  
Month to date heating degree days 38 63  
Since 1 July heating degree days 351 414  
Cooling Degree Days 2 1  
Month to date cooling degree days 3 7  
Year to date cooling degree days 3 7  
Growing Degree Days 16 (Base 50)    
Moisture  
Dew Point 56 °F    
Average Humidity 71    
Maximum Humidity 100    
Minimum Humidity 42    
Precipitation  
Precipitation 0.00 in 0.05 in 1.84 in (1928)
Month to date precipitation T 0.37  
Year to date precipitation T 0.37  
Snow  
Snow 0.00 in - - ()
Month to date snowfall 0.0  
Since 1 July snowfall 0.0  
Snow Depth 0.00 in    
Sea Level Pressure  
Sea Level Pressure 29.97 in    
Wind  
Wind Speed 6 mph (South)    
Max Wind Speed 14 mph    
Max Gust Speed 15 mph    
Visibility 6 miles    
Events Fog    
T = Trace of Precipitation, MM = Missing Value Source: NWS Daily Summary

Daily Weather History Graph

Daily Weather History Graph

Search for Another Location

Airport or City:

Trip Planner

Search our weather history database for the weather conditions in past years. The results will help you decide how hot, cold, wet, or windy it might be!

Date:

Astronomy

Jan. 07, 2012 Rise Set
Actual Time 7:22 AM CST 5:50 PM CST
Civil Twilight 6:56 AM CST 6:15 PM CST
Nautical Twilight 6:27 AM CST 6:44 PM CST
Astronomical Twilight 5:59 AM CST 7:13 PM CST
Moon 4:37 PM CST (1/7) 5:52 AM CST (1/7)
Length of Visible Light 11h 19m
Length of Day
10h 28m
Waxing Gibbous, 97% of the Moon is Illuminated
Jan 7
Waxing Gibbous
Jan 9
Full
Jan 16
Last Quarter
Jan 23
New
Jan 30
First Quarter

Hourly Weather History & Observations

Time (CST) Temp. Heat Index Dew Point Humidity Pressure Visibility Wind Dir Wind Speed Gust Speed Precip Events Conditions
12:51 AM 57.0 °F - 55.0 °F 93% 29.95 in 10.0 mi SSE 4.6 mph - N/A   Clear
1:51 AM 55.9 °F - 54.0 °F 93% 29.95 in 10.0 mi SSE 8.1 mph - N/A   Clear
2:51 AM 57.0 °F - 55.0 °F 93% 29.95 in 8.0 mi SSE 6.9 mph - N/A   Clear
3:13 AM 55.4 °F - 55.4 °F 100% 29.94 in 4.0 mi SSE 8.1 mph - N/A   Partly Cloudy
3:31 AM 55.4 °F - 53.6 °F 94% 29.94 in 2.0 mi SSE 8.1 mph - N/A   Scattered Clouds
3:38 AM 55.4 °F - 53.6 °F 94% 29.95 in 1.0 mi SSE 8.1 mph - N/A   Scattered Clouds
3:46 AM 55.4 °F - 53.6 °F 94% 29.95 in 0.5 mi SSE 6.9 mph - N/A Fog Fog
3:51 AM 55.0 °F - 54.0 °F 96% 29.95 in 0.5 mi SSE 8.1 mph - N/A Fog Fog
4:42 AM 55.4 °F - 55.4 °F 100% 29.94 in 2.0 mi SSE 9.2 mph - N/A   Partly Cloudy
4:51 AM 55.0 °F - 54.0 °F 96% 29.95 in 6.0 mi SSE 9.2 mph - N/A   Partly Cloudy
5:51 AM 55.9 °F - 55.0 °F 97% 29.95 in 6.0 mi SSE 8.1 mph - N/A   Partly Cloudy
6:13 AM 53.6 °F - 53.6 °F 100% 29.95 in 2.0 mi SSE 8.1 mph - N/A   Partly Cloudy
6:19 AM 55.4 °F - 53.6 °F 94% 29.96 in 1.0 mi SSE 8.1 mph - N/A   Scattered Clouds
6:28 AM 55.4 °F - 53.6 °F 94% 29.96 in 0.5 mi SSE 8.1 mph - N/A Fog Fog
6:47 AM 55.4 °F - 53.6 °F 94% 29.97 in 1.0 mi SSE 8.1 mph - N/A   Mist
6:51 AM 55.0 °F - 54.0 °F 96% 29.97 in 1.0 mi SSE 9.2 mph - N/A   Partly Cloudy
7:00 AM 55.4 °F - 53.6 °F 94% 29.97 in 0.5 mi SSE 6.9 mph - N/A Fog Fog
7:22 AM 53.6 °F - 53.6 °F 100% 29.98 in 0.2 mi South 5.8 mph - N/A Fog Fog
7:51 AM 52.0 °F - 51.1 °F 97% 29.99 in 0.2 mi South 3.5 mph - N/A Fog Fog
7:56 AM 51.8 °F - 51.8 °F 100% 29.99 in 0.2 mi South 4.6 mph - N/A Fog Fog
8:51 AM 57.9 °F - 55.9 °F 93% 30.01 in 0.2 mi South 3.5 mph - N/A Fog Fog
9:30 AM 60.8 °F - 59.0 °F 94% 30.03 in 0.5 mi SW 5.8 mph - N/A Fog Fog
9:40 AM 60.8 °F - 59.0 °F 94% 30.03 in 4.0 mi SW 5.8 mph - N/A   Scattered Clouds
9:51 AM 61.0 °F - 59.0 °F 93% 30.04 in 10.0 mi SW 5.8 mph - N/A   Partly Cloudy
10:51 AM 70.0 °F - 60.1 °F 71% 30.04 in 10.0 mi SW 9.2 mph - N/A   Partly Cloudy
11:51 AM 72.0 °F - 60.1 °F 66% 30.02 in 10.0 mi West 8.1 mph - N/A   Clear
12:51 PM 75.0 °F - 60.1 °F 60% 29.99 in 10.0 mi Variable 3.5 mph - N/A   Clear
1:51 PM 77.0 °F - 59.0 °F 54% 29.96 in 10.0 mi WSW 6.9 mph - N/A   Clear
2:51 PM 79.0 °F - 57.0 °F 47% 29.94 in 10.0 mi Calm Calm - N/A   Clear
3:51 PM 81.0 °F 80.7 °F 55.0 °F 41% 29.93 in 10.0 mi WSW 8.1 mph - N/A   Clear
4:51 PM 75.9 °F - 61.0 °F 60% 29.94 in 10.0 mi East 8.1 mph - N/A   Clear
5:51 PM 72.0 °F - 59.0 °F 64% 29.96 in 10.0 mi SE 10.4 mph - N/A   Partly Cloudy
6:51 PM 68.0 °F - 57.9 °F 70% 29.98 in 10.0 mi Calm Calm - N/A   Clear
7:51 PM 64.0 °F - 55.9 °F 75% 29.98 in 10.0 mi SE 3.5 mph - N/A   Clear
8:51 PM 63.0 °F - 57.9 °F 84% 29.99 in 10.0 mi Calm Calm - N/A   Clear
9:51 PM 62.1 °F - 57.0 °F 84% 29.99 in 10.0 mi SSE 6.9 mph - N/A   Clear
10:51 PM 64.9 °F - 60.1 °F 84% 29.99 in 10.0 mi South 10.4 mph - N/A   Clear
11:51 PM 64.0 °F - 59.0 °F 84% 29.99 in 10.0 mi SSE 8.1 mph - N/A   Clear